Mora, MN

4:20 AM CDT on September 21, 2017 (GMT -0500)
Mora Municipal

Weather History for KJMR - November, 2011

Change the Weather History Date:

Monday, November 21, 2011

  Actual Average Record
Temperature  
Mean Temperature 14 °F -  
Max Temperature 28 °F 35 °F 129 °F (1997)
Min Temperature 0 °F 17 °F -3 °F (1978)
Degree Days  
Heating Degree Days 51    
Moisture  
Dew Point 17 °F    
Average Humidity 89    
Maximum Humidity 93    
Minimum Humidity 78    
Precipitation  
Precipitation 0.00 in - - ()
Sea Level Pressure  
Sea Level Pressure 30.27 in    
Wind  
Wind Speed 1 mph (South)    
Max Wind Speed 7 mph    
Max Gust Speed -    
Visibility 4 miles    
Events      
Averages and records for this station are not official NWS values.
T = Trace of Precipitation, MM = Missing Value Source: NWS Daily Summary

Daily Weather History Graph

Daily Weather History Graph

Search for Another Location

Airport or City:

Trip Planner

Search our weather history database for the weather conditions in past years. The results will help you decide how hot, cold, wet, or windy it might be!

Date:

Astronomy

Nov. 21, 2011 Rise Set
Actual Time 7:21 AM CST 4:36 PM CST
Civil Twilight 6:48 AM CST 5:09 PM CST
Nautical Twilight 6:11 AM CST 5:45 PM CST
Astronomical Twilight 5:36 AM CST 6:21 PM CST
Moon 2:49 AM CST 2:08 PM CST
Length of Visible Light 10h 20m
Length of Day
9h 15m
Waning Crescent, 17% of the Moon is Illuminated
Nov 21
Waning Crescent
Nov 25
New
Dec 2
First Quarter
Dec 10
Full
Dec 17
Last Quarter

Hourly Weather History & Observations

Time (CST) Temp. Windchill Dew Point Humidity Pressure Visibility Wind Dir Wind Speed Gust Speed Precip Events Conditions
12:15 AM -0.4 °F - -4.0 °F 85% 30.32 in 10.0 mi Calm Calm - N/A   Clear
12:34 AM -0.4 °F - -5.8 °F 78% 30.32 in 10.0 mi Calm Calm - N/A   Clear
12:55 AM -0.4 °F - -5.8 °F 78% 30.31 in 10.0 mi Calm Calm - N/A   Clear
1:15 AM -0.4 °F - -5.8 °F 78% 30.31 in 10.0 mi Calm Calm - N/A   Clear
1:34 AM -0.4 °F - -5.8 °F 78% 30.30 in 10.0 mi Calm Calm - N/A   Clear
1:55 AM -0.4 °F - -5.8 °F 78% 30.30 in 10.0 mi Calm Calm - N/A   Clear
2:55 AM -0.4 °F - -4.0 °F 85% 30.31 in 10.0 mi Calm Calm - N/A   Mostly Cloudy
3:15 AM 3.2 °F - -0.4 °F 85% 30.30 in 10.0 mi Calm Calm - N/A   Overcast
3:34 AM 6.8 °F - 3.2 °F 85% 30.30 in 7.0 mi Calm Calm - N/A   Overcast
3:54 AM 12.2 °F - 10.4 °F 92% 30.29 in 3.0 mi Calm Calm - N/A   Overcast
4:15 AM 14.0 °F - 12.2 °F 93% 30.28 in 3.0 mi Calm Calm - N/A   Overcast
4:34 AM 17.6 °F 10.7 °F 14.0 °F 86% 30.28 in 3.0 mi South 4.6 mph - N/A   Overcast
4:55 AM 17.6 °F - 14.0 °F 86% 30.28 in 3.0 mi Calm Calm - N/A   Overcast
5:15 AM 17.6 °F 12.3 °F 14.0 °F 86% 30.28 in 2.5 mi South 3.5 mph - N/A   Overcast
5:35 AM 17.6 °F 10.7 °F 14.0 °F 86% 30.28 in 1.5 mi South 4.6 mph - N/A   Overcast
5:55 AM 17.6 °F 12.3 °F 15.8 °F 93% 30.28 in 1.8 mi South 3.5 mph - N/A   Overcast
6:14 AM 17.6 °F 12.3 °F 15.8 °F 93% 30.28 in 1.5 mi South 3.5 mph - N/A   Overcast
6:35 AM 19.4 °F 14.3 °F 15.8 °F 86% 30.28 in 1.2 mi South 3.5 mph - N/A   Overcast
6:55 AM 19.4 °F - 17.6 °F 93% 30.28 in 1.0 mi Calm Calm - N/A   Overcast
7:15 AM 19.4 °F - 17.6 °F 93% 30.28 in 1.2 mi Calm Calm - N/A   Overcast
7:35 AM 19.4 °F 14.3 °F 17.6 °F 93% 30.28 in 1.5 mi South 3.5 mph - N/A   Overcast
8:14 AM 19.4 °F - 17.6 °F 93% 30.29 in 1.5 mi Calm Calm - N/A   Overcast
8:35 AM 21.2 °F - 19.4 °F 93% 30.30 in 1.8 mi Calm Calm - N/A   Overcast
8:55 AM 21.2 °F 16.4 °F 19.4 °F 93% 30.30 in 1.8 mi SSW 3.5 mph - N/A   Overcast
9:14 AM 21.2 °F 16.4 °F 19.4 °F 93% 30.30 in 1.8 mi SSW 3.5 mph - N/A   Overcast
9:35 AM 21.2 °F 16.4 °F 19.4 °F 93% 30.30 in 2.0 mi South 3.5 mph - N/A   Overcast
9:55 AM 23.0 °F - 21.2 °F 93% 30.30 in 2.5 mi Calm Calm - N/A   Overcast
10:14 AM 24.8 °F 20.5 °F 23.0 °F 93% 30.29 in 3.0 mi SSW 3.5 mph - N/A   Overcast
10:35 AM 24.8 °F 20.5 °F 23.0 °F 93% 30.29 in 3.0 mi South 3.5 mph - N/A   Overcast
10:54 AM 24.8 °F 17.9 °F 23.0 °F 93% 30.29 in 4.0 mi SSW 5.8 mph - N/A   Overcast
11:14 AM 24.8 °F 17.9 °F 23.0 °F 93% 30.28 in 4.0 mi South 5.8 mph - N/A   Overcast
11:35 AM 26.6 °F 20.0 °F 24.8 °F 93% 30.27 in 4.0 mi SSW 5.8 mph - N/A   Overcast
11:55 AM 26.6 °F 19.1 °F 24.8 °F 93% 30.27 in 4.0 mi South 6.9 mph - N/A   Overcast
12:14 PM 26.6 °F 19.1 °F 24.8 °F 93% 30.26 in 4.0 mi South 6.9 mph - N/A   Overcast
12:35 PM 26.6 °F 20.0 °F 24.8 °F 93% 30.25 in 4.0 mi South 5.8 mph - N/A   Overcast
12:55 PM 26.6 °F 20.0 °F 24.8 °F 93% 30.25 in 4.0 mi SSW 5.8 mph - N/A   Overcast
1:15 PM 26.6 °F 22.6 °F 24.8 °F 93% 30.25 in 5.0 mi SSW 3.5 mph - N/A   Overcast
1:35 PM 26.6 °F - 24.8 °F 93% 30.25 in 4.0 mi Calm Calm - N/A   Overcast
2:14 PM 26.6 °F - 24.8 °F 93% 30.24 in 5.0 mi Calm Calm - N/A   Overcast
2:35 PM 26.6 °F - 23.0 °F 86% 30.24 in 5.0 mi Calm Calm - N/A   Overcast
2:55 PM 28.4 °F - 24.8 °F 86% 30.24 in 5.0 mi Calm Calm - N/A   Overcast
3:14 PM 28.4 °F - 24.8 °F 86% 30.23 in 5.0 mi Calm Calm - N/A   Overcast
3:35 PM 28.4 °F - 24.8 °F 86% 30.23 in 5.0 mi Calm Calm - N/A   Overcast
3:55 PM 28.4 °F 24.6 °F 24.8 °F 86% 30.24 in 5.0 mi ESE 3.5 mph - N/A   Overcast
4:14 PM 28.4 °F - 23.0 °F 80% 30.23 in 5.0 mi Calm Calm - N/A   Overcast
4:55 PM 28.4 °F - 23.0 °F 80% 30.23 in 7.0 mi Calm Calm - N/A   Overcast
5:14 PM 26.6 °F - 23.0 °F 86% 30.22 in 5.0 mi Calm Calm - N/A   Overcast
5:35 PM 26.6 °F - 23.0 °F 86% 30.22 in 5.0 mi Calm Calm - N/A   Mostly Cloudy
5:54 PM 24.8 °F - 21.2 °F 86% 30.22 in 4.0 mi Calm Calm - N/A   Scattered Clouds
6:15 PM 21.2 °F - 19.4 °F 93% 30.23 in 2.5 mi Calm Calm - N/A   Clear
6:35 PM 21.2 °F - 19.4 °F 93% 30.24 in 1.2 mi Calm Calm - N/A   Overcast
6:54 PM 21.2 °F - 19.4 °F 93% 30.24 in 2.5 mi Calm Calm - N/A   Overcast
7:15 PM 23.0 °F - 21.2 °F 93% 30.24 in 4.0 mi Calm Calm - N/A   Overcast
7:35 PM 26.6 °F - 24.8 °F 93% 30.24 in 4.0 mi Calm Calm - N/A   Overcast
7:54 PM 26.6 °F - 24.8 °F 93% 30.24 in 4.0 mi Calm Calm - N/A   Overcast
8:15 PM 26.6 °F - 24.8 °F 93% 30.23 in 4.0 mi Calm Calm - N/A   Overcast
8:35 PM 26.6 °F - 24.8 °F 93% 30.23 in 5.0 mi Calm Calm - N/A   Overcast
8:55 PM 26.6 °F - 23.0 °F 86% 30.23 in 4.0 mi Calm Calm - N/A   Overcast
9:15 PM 24.8 °F - 23.0 °F 93% 30.22 in 4.0 mi Calm Calm - N/A   Overcast
9:34 PM 24.8 °F - 23.0 °F 93% 30.22 in 4.0 mi Calm Calm - N/A   Overcast
9:55 PM 26.6 °F - 24.8 °F 93% 30.22 in 5.0 mi Calm Calm - N/A   Overcast
10:15 PM 26.6 °F - 24.8 °F 93% 30.22 in 4.0 mi Calm Calm - N/A   Overcast
10:34 PM 26.6 °F - 24.8 °F 93% 30.22 in 5.0 mi Calm Calm - N/A   Overcast
10:55 PM 26.6 °F - 24.8 °F 93% 30.22 in 5.0 mi Calm Calm - N/A   Overcast
11:34 PM 26.6 °F - 24.8 °F 93% 30.22 in 5.0 mi Calm Calm - N/A   Overcast
11:55 PM 28.4 °F - 26.6 °F 93% 30.22 in 5.0 mi Calm Calm - N/A   Overcast